When you browse on this site, cookies collect data to enhance your experience and personalize the content and advertising you see.
Visit our Privacy Policy to learn more. By continuing to use the site, you agree to this use of cookies and data.
  • In Latvia
  • List of Countries
  • For 7 days
  • Water Temperature
  • Satellite Maps
  • Weather Map
  • Weather Widgets
  • user-avatar
    Login

    Hourly Weather Polanowice

    Today, 26 May, Sunday

    Time Temperature Precipitation Wind Pressure Humidity
    00:00 +8°C° 0 mm 2 mps 753 mmHg 91%
    01:00 +8°C° 0 mm 2 mps 753 mmHg 91%
    02:00 +8°C° 0 mm 2 mps 753 mmHg 90%
    03:00 +9°C° 0 mm 2 mps 753 mmHg 88%
    04:00 +9°C° 0 mm 3 mps 753 mmHg 87%
    05:00 +10°C° 0 mm 3 mps 753 mmHg 84%
    06:00 +11°C° 0 mm 4 mps 753 mmHg 82%
    07:00 +12°C° 0 mm 4 mps 752 mmHg 79%
    08:00 +13°C° 0 mm 5 mps 752 mmHg 75%
    09:00 +14°C° 0 mm 5 mps 752 mmHg 71%
    10:00 +15°C° 0 mm 6 mps 752 mmHg 67%
    11:00 +16°C° 0 mm 6 mps 752 mmHg 64%
    12:00 +17°C° 0 mm 6 mps 751 mmHg 62%
    13:00 +19°C° 0 mm 6 mps 751 mmHg 60%
    14:00 +19°C° 0 mm 6 mps 751 mmHg 59%
    15:00 +20°C° 0 mm 6 mps 750 mmHg 59%
    16:00 +20°C° 0 mm 6 mps 750 mmHg 59%
    17:00 +19°C° 0 mm 5 mps 750 mmHg 64%
    18:00 +18°C° 0 mm 4 mps 750 mmHg 70%
    19:00 +18°C° 0 mm 3 mps 749 mmHg 75%
    20:00 +17°C° 0 mm 3 mps 749 mmHg 77%
    21:00 +14°C° 0 mm 3 mps 749 mmHg 79%
    22:00 +13°C° 0 mm 3 mps 750 mmHg 82%
    23:00 +14°C° 0 mm 4 mps 749 mmHg 78%

    Tomorrow, 27 May, Monday

    Time Temperature Precipitation Wind Pressure Humidity
    00:00 +14°C° 0 mm 4 mps 749 mmHg 75%
    01:00 +15°C° 0 mm 4 mps 749 mmHg 72%
    02:00 +14°C° 0 mm 4 mps 749 mmHg 76%
    03:00 +13°C° 0 mm 5 mps 748 mmHg 79%
    04:00 +12°C° 0 mm 5 mps 748 mmHg 83%
    05:00 +14°C° 0 mm 5 mps 748 mmHg 80%
    06:00 +16°C° 0 mm 5 mps 748 mmHg 76%
    07:00 +17°C° 0 mm 6 mps 748 mmHg 73%
    08:00 +19°C° 0 mm 6 mps 748 mmHg 69%
    09:00 +21°C° 0 mm 6 mps 748 mmHg 65%
    10:00 +22°C° 0 mm 7 mps 748 mmHg 61%
    11:00 +22°C° 0.2 mm 7 mps 748 mmHg 62%
    12:00 +23°C° 0.2 mm 7 mps 748 mmHg 63%
    13:00 +23°C° 0.2 mm 7 mps 748 mmHg 64%
    14:00 +22°C° 0.8 mm 6 mps 748 mmHg 67%
    15:00 +22°C° 0.8 mm 5 mps 748 mmHg 70%
    16:00 +21°C° 0.8 mm 4 mps 748 mmHg 73%
    17:00 +20°C° 0.4 mm 3 mps 748 mmHg 76%
    18:00 +19°C° 0.4 mm 3 mps 748 mmHg 80%
    19:00 +18°C° 0.4 mm 2 mps 748 mmHg 83%
    20:00 +17°C° 0 mm 2 mps 748 mmHg 85%
    21:00 +16°C° 0 mm 2 mps 748 mmHg 86%
    22:00 +13°C° 0 mm 3 mps 748 mmHg 88%
    23:00 +13°C° 0.1 mm 3 mps 748 mmHg 89%

    Day after tomorrow, 28 May, Tuesday

    Time Temperature Precipitation Wind Pressure Humidity
    00:00 +13°C° 0.1 mm 3 mps 748 mmHg 91%
    01:00 +13°C° 0.1 mm 3 mps 748 mmHg 93%
    02:00 +13°C° 1 mm 3 mps 748 mmHg 94%
    03:00 +13°C° 1 mm 3 mps 747 mmHg 96%
    04:00 +13°C° 1 mm 3 mps 747 mmHg 97%
    05:00 +13°C° 1.8 mm 3 mps 747 mmHg 97%
    06:00 +13°C° 1.8 mm 3 mps 746 mmHg 97%
    07:00 +13°C° 1.8 mm 4 mps 746 mmHg 97%
    08:00 +13°C° 1.1 mm 4 mps 746 mmHg 96%
    09:00 +13°C° 1.1 mm 4 mps 746 mmHg 96%
    10:00 +13°C° 1.1 mm 5 mps 745 mmHg 96%
    11:00 +14°C° 0.5 mm 5 mps 745 mmHg 95%
    12:00 +14°C° 0.5 mm 5 mps 745 mmHg 95%
    13:00 +14°C° 0.5 mm 6 mps 745 mmHg 95%
    14:00 +13°C° 1.2 mm 6 mps 745 mmHg 94%
    15:00 +13°C° 1.2 mm 6 mps 745 mmHg 94%
    16:00 +13°C° 1.2 mm 6 mps 745 mmHg 94%
    17:00 +11°C° 0.9 mm 7 mps 745 mmHg 94%
    18:00 +11°C° 0.9 mm 7 mps 745 mmHg 94%
    19:00 +10°C° 0.9 mm 7 mps 745 mmHg 94%
    20:00 +10°C° 0.3 mm 7 mps 745 mmHg 94%
    21:00 +10°C° 0.3 mm 6 mps 746 mmHg 94%
    22:00 +10°C° 0.3 mm 6 mps 746 mmHg 93%
    23:00 +10°C° 0.2 mm 6 mps 746 mmHg 93%

    29 May, Wednesday

    Time Temperature Precipitation Wind Pressure Humidity
    00:00 +9°C° 0.2 mm 6 mps 746 mmHg 94%
    01:00 +9°C° 0.2 mm 6 mps 747 mmHg 94%
    02:00 +9°C° 0.2 mm 6 mps 747 mmHg 93%
    03:00 +8°C° 0.2 mm 5 mps 747 mmHg 92%
    04:00 +8°C° 0.2 mm 5 mps 748 mmHg 92%
    05:00 +8°C° 0 mm 5 mps 748 mmHg 89%
    06:00 +9°C° 0 mm 5 mps 749 mmHg 87%
    07:00 +10°C° 0 mm 4 mps 749 mmHg 85%
    08:00 +12°C° 0 mm 4 mps 750 mmHg 79%
    09:00 +13°C° 0 mm 4 mps 750 mmHg 73%
    10:00 +15°C° 0 mm 4 mps 751 mmHg 67%
    11:00 +17°C° 0 mm 4 mps 751 mmHg 64%
    12:00 +17°C° 0 mm 4 mps 751 mmHg 61%
    13:00 +18°C° 0 mm 4 mps 752 mmHg 59%
    14:00 +18°C° 0 mm 4 mps 752 mmHg 60%
    15:00 +18°C° 0 mm 4 mps 752 mmHg 61%
    16:00 +18°C° 0 mm 4 mps 752 mmHg 61%
    17:00 +17°C° 0 mm 4 mps 753 mmHg 65%
    18:00 +15°C° 0 mm 4 mps 753 mmHg 69%
    19:00 +13°C° 0 mm 4 mps 754 mmHg 73%
    20:00 +12°C° 0 mm 4 mps 754 mmHg 73%
    21:00 +11°C° 0 mm 4 mps 755 mmHg 72%
    22:00 +9°C° 0 mm 3 mps 756 mmHg 72%
    23:00 +9°C° 0 mm 3 mps 756 mmHg 73%

    30 May, Thursday

    Time Temperature Precipitation Wind Pressure Humidity
    00:00 +8°C° 0 mm 3 mps 757 mmHg 74%
    01:00 +7°C° 0 mm 3 mps 757 mmHg 75%
    02:00 +7°C° 0 mm 2 mps 757 mmHg 78%
    03:00 +6°C° 0 mm 2 mps 758 mmHg 80%
    04:00 +6°C° 0 mm 2 mps 758 mmHg 83%
    05:00 +7°C° 0 mm 2 mps 758 mmHg 81%
    06:00 +8°C° 0 mm 2 mps 759 mmHg 79%
    07:00 +9°C° 0 mm 3 mps 759 mmHg 77%
    08:00 +12°C° 0 mm 2 mps 759 mmHg 70%
    09:00 +13°C° 0 mm 2 mps 759 mmHg 63%
    10:00 +14°C° 0 mm 2 mps 759 mmHg 56%
    11:00 +15°C° 0 mm 2 mps 759 mmHg 54%
    12:00 +16°C° 0 mm 3 mps 759 mmHg 52%
    13:00 +17°C° 0 mm 3 mps 759 mmHg 50%
    14:00 +17°C° 0 mm 3 mps 759 mmHg 52%
    15:00 +17°C° 0 mm 3 mps 759 mmHg 53%
    16:00 +17°C° 0 mm 3 mps 759 mmHg 55%
    17:00 +16°C° 0 mm 3 mps 759 mmHg 60%
    18:00 +15°C° 0 mm 2 mps 759 mmHg 64%
    19:00 +14°C° 0 mm 2 mps 759 mmHg 69%
    20:00 +13°C° 0 mm 2 mps 759 mmHg 71%
    21:00 +11°C° 0 mm 3 mps 759 mmHg 72%
    22:00 +9°C° 0 mm 3 mps 759 mmHg 74%
    23:00 +9°C° 0 mm 3 mps 759 mmHg 73%

    31 May, Friday

    Time Temperature Precipitation Wind Pressure Humidity
    00:00 +8°C° 0 mm 4 mps 759 mmHg 73%
    01:00 +8°C° 0 mm 4 mps 759 mmHg 72%
    02:00 +10°C° 0 mm 4 mps 758 mmHg 71%
    03:00 +10°C° 0 mm 4 mps 758 mmHg 70%
    04:00 +10°C° 0 mm 5 mps 758 mmHg 69%
    05:00 +10°C° 0 mm 5 mps 758 mmHg 73%
    06:00 +12°C° 0 mm 4 mps 758 mmHg 77%
    07:00 +12°C° 0 mm 4 mps 758 mmHg 81%
    08:00 +13°C° 0.1 mm 4 mps 759 mmHg 80%
    09:00 +13°C° 0.1 mm 4 mps 759 mmHg 79%
    10:00 +14°C° 0.1 mm 5 mps 759 mmHg 78%
    11:00 +15°C° 0 mm 4 mps 759 mmHg 73%
    12:00 +15°C° 0 mm 4 mps 760 mmHg 68%
    13:00 +17°C° 0 mm 4 mps 760 mmHg 63%
    14:00 +17°C° 0 mm 4 mps 760 mmHg 62%
    15:00 +17°C° 0 mm 4 mps 760 mmHg 61%
    16:00 +18°C° 0 mm 4 mps 761 mmHg 59%
    17:00 +16°C° 0 mm 3 mps 761 mmHg 62%
    18:00 +14°C° 0 mm 3 mps 761 mmHg 65%
    19:00 +14°C° 0 mm 2 mps 761 mmHg 69%
    20:00 +13°C° 0 mm 2 mps 762 mmHg 71%
    21:00 +10°C° 0 mm 2 mps 762 mmHg 72%
    22:00 +8°C° 0 mm 2 mps 762 mmHg 74%
    23:00 +8°C° 0 mm 2 mps 763 mmHg 79%
    Show more